[[{"header":{"parameterUnit":"m.s-1","parameterCategory":1,"la1":30.2991,"la2":30.254,"lo1":-89.0895,"lo2":-89.0444,"dy":0.0017,"dx":0.0017,"nx":28,"ny":28,"refTime":"2025-11-07T09:00:00:Z","depth":0,"parameterNumber":2,"parameterNumberName":"U-component_of_WINDS"},"data":[0,0,0,0,0,0,0,0,0,0,0,0,0,0,0,0,0,0,0,0,0,0,0,0,0,0,0,0,0,0,0,0,0,0,0,0,0,0,0,0,0,0,0,0,0,0,0,0,0,0,0,0,0,0,0,0,0,0,-2.386,-2.386,0,-2.3877,-2.3878,-2.3878,-2.3833,-2.3832,-2.383,-2.3829,-2.3847,-2.3849,-2.3851,0,0,0,0,0,0,0,0,0,0,0,0,0,-2.3787,-2.3789,-2.386,-2.386,-2.386,-2.3877,-2.3878,-2.3878,-2.3834,-2.3832,-2.383,-2.3829,-2.3847,-2.3849,-2.3851,0,0,0,0,0,0,0,0,0,0,0,0,0,-2.3813,-2.3789,-2.386,-2.384,-2.3839,-2.3877,-2.3878,-2.3878,-2.3834,-2.3832,-2.383,-2.3828,-2.3846,-2.3848,-2.3851,-2.391,0,0,-2.3859,-2.386,0,0,0,0,0,0,0,0,-2.3812,-2.3816,-2.3843,-2.3842,-2.384,-2.3851,-2.3859,-2.3889,-2.3834,-2.3836,-2.3829,-2.3827,-2.385,-2.3852,-2.386,-2.391,-2.3911,-2.386,-2.3861,-2.3862,-2.3863,0,0,0,0,0,0,0,-2.381,-2.3815,-2.3867,-2.3843,-2.3842,-2.383,-2.3832,-2.3864,-2.3854,-2.3835,-2.3832,-2.3835,-2.3849,-2.3858,-2.386,-2.3912,-2.3859,-2.3862,-2.3863,-2.3865,-2.4008,-2.4011,0,0,0,0,0,0,-2.3811,-2.3814,-2.3866,-2.3867,-2.382,-2.3833,-2.3835,-2.385,-2.3854,-2.3853,-2.3837,-2.3833,-2.3854,-2.3857,-2.3861,-2.3927,-2.3862,-2.3865,-2.3866,-2.4006,-2.4009,-2.4011,0,0,0,0,0,0,-2.3809,-2.3816,-2.3866,-2.384,-2.3845,-2.3837,-2.3854,-2.3851,-2.386,-2.3855,-2.3853,-2.3847,-2.3853,-2.3857,-2.3897,-2.3928,-2.3866,-2.3868,-2.4004,-2.4007,-2.401,-2.4063,0,0,0,0,0,0,-2.3807,-2.3816,-2.3838,-2.384,-2.3847,-2.3902,-2.3856,-2.3853,-2.3865,-2.386,-2.3865,-2.3863,-2.3851,-2.3894,-2.39,-2.393,-2.387,-2.4001,-2.4005,-2.4009,-2.4058,-2.4068,-2.4076,0,0,0,0,0,-2.3805,-2.3853,-2.3839,-2.3846,-2.3874,-2.3904,-2.3908,-2.3893,-2.3867,-2.3889,-2.3886,-2.3863,-2.3924,-2.3898,-2.3905,-2.3936,-2.3999,-2.4004,-2.4009,-2.4055,-2.4066,-2.4075,0,0,0,0,0,0,-2.3854,-2.3853,-2.3838,-2.3888,-2.3896,-2.3896,-2.3924,-2.3906,-2.3921,-2.3916,-2.3897,-2.3899,-2.3942,-2.3944,-2.3915,-2.3992,-2.3957,-2.3963,-2.3989,-2.4,-2.4008,-2.4006,-2.3873,0,0,0,0,0,-2.3871,-2.3895,-2.3893,-2.3937,-2.3942,-2.3932,-2.3945,-2.3933,-2.3941,-2.3944,-2.3944,-2.3952,-2.3973,-2.3987,-2.4006,-2.4059,-2.4058,-2.4084,-2.4093,-2.41,-2.4105,-2.4131,-2.4142,-2.4028,-2.4028,-2.4028,0,0,-2.3906,-2.3908,-2.3924,-2.3947,-2.3952,-2.3977,-2.3936,-2.3964,-2.3982,-2.3948,-2.3985,-2.3986,-2.3994,-2.404,-2.4061,-2.4043,-2.4137,-2.4106,-2.4112,-2.4113,-2.4137,-2.4148,-2.4158,-2.4031,-2.403,-2.403,0,0,-2.3981,-2.3986,-2.4022,-2.4028,-2.4036,-2.4029,-2.4038,-2.4041,-2.404,-2.4077,-2.4051,-2.4073,-2.4109,-2.4115,-2.4124,-2.4201,-2.4179,-2.4208,-2.4251,-2.4277,-2.4286,-2.4294,-2.4319,-2.4329,-2.4213,-2.4213,-2.4213,0,-2.4023,-2.4059,-2.4043,-2.4073,-2.4083,-2.4053,-2.4089,-2.4096,-2.411,-2.4117,-2.4097,-2.4141,-2.4145,-2.4191,-2.421,-2.4219,-2.4227,-2.4206,-2.4286,-2.4294,-2.4301,-2.4325,-2.4334,-2.4217,-2.4216,-2.4216,-2.4216,0,-2.4109,-2.4135,-2.4163,-2.4177,-2.419,-2.4223,-2.4211,-2.4227,-2.4214,-2.4209,-2.4246,-2.425,-2.4268,-2.4279,-2.4267,-2.4323,-2.4311,-2.4289,-2.4253,-2.4315,-2.4337,-2.4346,-2.4221,-2.422,-2.4219,-2.4218,0,0,-2.4215,-2.4219,-2.4229,-2.4234,-2.4241,-2.426,-2.4292,-2.4309,-2.4321,-2.4333,-2.4357,-2.4388,-2.4368,-2.4377,-2.4365,-2.4388,-2.4446,-2.4363,-2.4362,-2.4376,-2.4506,-2.452,-2.4531,-2.4433,-2.4435,-2.4436,-2.4504,0,-2.4287,-2.434,-2.4326,-2.4379,-2.4401,-2.4373,-2.44,-2.4407,-2.4403,-2.4422,-2.4418,-2.4439,-2.4411,-2.4416,-2.4438,-2.4434,-2.4471,-2.4429,-2.4454,-2.4455,-2.445,-2.4543,-2.4559,-2.4623,-2.4513,-2.4514,-2.4515,0,-2.4379,-2.4392,-2.4446,-2.4447,-2.4456,-2.4481,-2.4495,-2.4513,-2.452,-2.4516,-2.4526,-2.4509,-2.4539,-2.4504,-2.4544,-2.4516,-2.4525,-2.4525,-2.4527,-2.4527,-2.4487,-2.4543,-2.4644,-2.4652,-2.4529,-2.4528,-2.4527,0,-2.4447,-2.4479,-2.4515,-2.452,-2.4524,-2.4541,-2.4543,-2.4548,-2.4559,-2.4571,-2.4578,-2.4594,-2.4603,-2.4615,-2.4603,-2.4579,-2.4644,-2.4609,-2.464,-2.464,-2.4653,-2.4652,-2.4754,-2.4664,-2.4664,-2.4663,-2.4663,0,-2.4528,-2.4561,-2.4545,-2.4567,-2.4604,-2.4588,-2.4625,-2.4624,-2.4628,-2.4649,-2.4627,-2.4647,-2.4631,-2.4649,-2.464,-2.4673,-2.4678,-2.4674,-2.4671,-2.4675,-2.4675,-2.4679,-2.4673,-2.4666,-2.4665,-2.4665,-2.4664,0,-2.4609,-2.46,-2.4637,-2.4637,-2.4638,-2.4665,-2.4664,-2.4684,-2.4679,-2.4705,-2.4711,-2.4703,-2.4723,-2.4713,-2.4734,-2.4728,-2.477,-2.4762,-2.4767,-2.4764,-2.4795,-2.4792,-2.4902,-2.4914,-2.4818,-2.4819,-2.482,0,-2.466,-2.4685,-2.4687,-2.4699,-2.4703,-2.4723,-2.4734,-2.4719,-2.4731,-2.474,-2.4759,-2.4777,-2.4791,-2.4825,-2.482,-2.4836,-2.4827,-2.4864,-2.4829,-2.4831,-2.4824,-2.4822,-2.4823,-2.4871,-2.4872,-2.4873,-2.4874,0,-2.475,-2.4744,-2.4761,-2.4775,-2.4788,-2.4799,-2.4808,-2.4819,-2.4805,-2.4819,-2.4839,-2.485,-2.4872,-2.4889,-2.4903,-2.4905,-2.4886,-2.4885,-2.4893,-2.4895,-2.4896,-2.4894,-2.4784,-2.4882,-2.4881,-2.4881,-2.488,-2.488,-2.4816,-2.4837,-2.4841,-2.4859,-2.4864,-2.4873,-2.4891,-2.4888,-2.4904,-2.492,-2.4911,-2.4934,-2.4939,-2.4955,-2.496,-2.4977,-2.4962,-2.4974,-2.4976,-2.4979,-2.4982,-2.4896,-2.498,-2.498,-2.498,-2.4979,-2.4979,0,-2.4903,-2.4904,-2.4922,-2.4934,-2.4948,-2.493,-2.4939,-2.4952,-2.4972,-2.4979,-2.4992,-2.5015,-2.5032,-2.5029,-2.5045,-2.5059,-2.5051,-2.5064,-2.5061,-2.5061,-2.4995,-2.4986,-2.507,-2.507,-2.507,-2.507,-2.507,-2.507,-2.495,-2.4982,-2.4976,-2.5011,-2.5012,-2.5034,-2.504,-2.5048,-2.5052,-2.5078,-2.5092,-2.509,-2.5093,-2.5108,-2.5123,-2.5121,-2.5127,-2.5142,-2.5137,-2.5075,-2.5066,-2.5058,-2.5049,-2.5144,-2.5144,-2.5201,-2.5202,-2.5202]},{"header":{"parameterUnit":"m.s-1","parameterCategory":1,"la1":30.2991,"la2":30.254,"lo1":-89.0895,"lo2":-89.0444,"dy":0.0017,"dx":0.0017,"nx":28,"ny":28,"refTime":"2025-11-07T09:00:00:Z","depth":0,"parameterNumber":3,"parameterNumberName":"V-component_of_WINDS"},"data":[0,0,0,0,0,0,0,0,0,0,0,0,0,0,0,0,0,0,0,0,0,0,0,0,0,0,0,0,0,0,0,0,0,0,0,0,0,0,0,0,0,0,0,0,0,0,0,0,0,0,0,0,0,0,0,0,0,0,1.2944,1.2946,0,1.3068,1.3069,1.307,1.3061,1.306,1.3058,1.3056,1.3184,1.3189,1.3194,0,0,0,0,0,0,0,0,0,0,0,0,0,1.2705,1.271,1.2944,1.2946,1.2947,1.3067,1.3069,1.3071,1.3062,1.3059,1.3057,1.3055,1.3182,1.3188,1.3194,0,0,0,0,0,0,0,0,0,0,0,0,0,1.2817,1.2711,1.2944,1.2957,1.296,1.3067,1.3069,1.3071,1.3062,1.3059,1.3057,1.3054,1.318,1.3188,1.3195,1.3298,0,0,1.3219,1.3222,0,0,0,0,0,0,0,0,1.2811,1.2826,1.2954,1.2957,1.2959,1.3046,1.3032,1.3147,1.3063,1.3023,1.3056,1.3053,1.3141,1.3151,1.3181,1.3304,1.3309,1.322,1.3224,1.3227,1.323,0,0,0,0,0,0,0,1.2803,1.282,1.2993,1.2956,1.2959,1.2958,1.2971,1.3054,1.3096,1.3027,1.3026,1.3041,1.3142,1.3173,1.3183,1.3311,1.3219,1.3226,1.3231,1.3234,1.3529,1.3532,0,0,0,0,0,0,1.2792,1.2814,1.2989,1.2997,1.2877,1.2965,1.2979,1.3021,1.3095,1.3104,1.3043,1.304,1.3161,1.3174,1.3188,1.3316,1.3227,1.3235,1.3239,1.3526,1.353,1.3533,0,0,0,0,0,0,1.2787,1.2807,1.2984,1.2905,1.2928,1.2972,1.3019,1.3025,1.3057,1.3107,1.3115,1.3067,1.316,1.3177,1.3271,1.332,1.3238,1.3245,1.3522,1.3527,1.3532,1.357,0,0,0,0,0,0,1.278,1.2806,1.2844,1.2906,1.2932,1.3065,1.3022,1.3029,1.307,1.3067,1.3132,1.314,1.3159,1.326,1.3279,1.3329,1.3251,1.3518,1.3524,1.353,1.3565,1.3576,1.3585,0,0,0,0,0,1.2771,1.285,1.2846,1.2867,1.2981,1.3067,1.3082,1.3101,1.3073,1.3114,1.3147,1.3138,1.3311,1.327,1.3291,1.3344,1.3515,1.3523,1.353,1.356,1.3573,1.3585,0,0,0,0,0,0,1.2792,1.2858,1.2855,1.2955,1.3006,1.3066,1.3116,1.3114,1.3174,1.3169,1.3191,1.3206,1.3301,1.3332,1.3284,1.3449,1.341,1.3422,1.3426,1.3439,1.3449,1.344,1.3257,0,0,0,0,0,1.2808,1.2872,1.2926,1.301,1.3035,1.3072,1.311,1.312,1.3174,1.3195,1.3235,1.3288,1.3355,1.3398,1.3462,1.3569,1.3585,1.3616,1.3626,1.3634,1.3645,1.3707,1.3722,1.3557,1.3557,1.3557,0,0,1.2842,1.2886,1.2925,1.3015,1.3055,1.3123,1.309,1.3161,1.3212,1.3206,1.3299,1.333,1.3391,1.3493,1.3539,1.3521,1.3694,1.3644,1.365,1.3656,1.3716,1.3732,1.3745,1.3562,1.3561,1.3561,0,0,1.2939,1.2977,1.3053,1.3094,1.3156,1.318,1.3198,1.3259,1.328,1.3373,1.3371,1.3432,1.3545,1.359,1.3627,1.3744,1.374,1.3764,1.3818,1.3878,1.3891,1.3903,1.3947,1.3963,1.3774,1.3775,1.3775,0,1.2974,1.3074,1.3092,1.3165,1.3206,1.3204,1.3282,1.3322,1.3402,1.3431,1.3409,1.3553,1.3594,1.3708,1.3737,1.3766,1.3789,1.3757,1.3888,1.39,1.3911,1.3954,1.397,1.3777,1.3777,1.3777,1.3776,0,1.3115,1.3185,1.3238,1.3316,1.3363,1.3438,1.3469,1.3515,1.3522,1.3549,1.3645,1.3694,1.3769,1.3797,1.3804,1.3913,1.39,1.3883,1.3844,1.3929,1.397,1.3986,1.3781,1.378,1.3779,1.3779,0,0,1.3228,1.3316,1.3335,1.3372,1.3441,1.3496,1.3572,1.3646,1.3686,1.3741,1.3808,1.3905,1.389,1.3933,1.3945,1.3998,1.4091,1.3975,1.3977,1.3997,1.4218,1.4232,1.425,1.4089,1.4092,1.4094,1.4214,0,1.3333,1.3468,1.3487,1.3607,1.3673,1.3673,1.374,1.3791,1.3819,1.3881,1.3911,1.3981,1.3955,1.3982,1.4034,1.4069,1.4136,1.406,1.4153,1.4156,1.4139,1.4271,1.4285,1.4396,1.4229,1.4232,1.4234,0,1.3474,1.3535,1.366,1.3724,1.3752,1.3812,1.3882,1.394,1.3999,1.4016,1.4065,1.4072,1.4153,1.411,1.4224,1.4172,1.4211,1.4234,1.4239,1.425,1.4201,1.4288,1.4431,1.4449,1.4259,1.4257,1.4255,0,1.3547,1.3659,1.375,1.3781,1.3856,1.3899,1.3932,1.3988,1.4032,1.4094,1.4123,1.4194,1.4233,1.4289,1.4315,1.4281,1.4429,1.4387,1.4447,1.4447,1.4479,1.4477,1.4633,1.4501,1.4501,1.45,1.45,0,1.3664,1.3742,1.3784,1.384,1.3928,1.3951,1.4038,1.407,1.4121,1.4185,1.4189,1.4249,1.428,1.4345,1.4366,1.446,1.4476,1.4494,1.4499,1.4495,1.4493,1.4522,1.4516,1.4505,1.4504,1.4503,1.4502,0,1.376,1.3791,1.3891,1.3954,1.3972,1.4035,1.409,1.4146,1.4173,1.4255,1.4275,1.4319,1.4397,1.4429,1.4523,1.4538,1.4646,1.4644,1.4626,1.4628,1.4687,1.4682,1.4869,1.4896,1.4744,1.4745,1.4746,0,1.3834,1.3894,1.3964,1.4007,1.4042,1.4111,1.4156,1.4182,1.4229,1.4302,1.435,1.4427,1.4491,1.4615,1.4657,1.473,1.4732,1.4792,1.4743,1.4738,1.4736,1.4733,1.474,1.4802,1.4803,1.4804,1.4805,0,1.3962,1.3975,1.404,1.4111,1.4165,1.4222,1.4278,1.4314,1.4348,1.4401,1.4481,1.453,1.4628,1.4706,1.4782,1.4818,1.4819,1.4821,1.4839,1.4836,1.4824,1.4834,1.4653,1.4816,1.4815,1.4814,1.4814,1.4813,1.4051,1.4106,1.4164,1.4237,1.4282,1.4335,1.4392,1.4427,1.4493,1.4575,1.4586,1.4672,1.4732,1.4835,1.4875,1.4943,1.4928,1.4954,1.4961,1.4967,1.4973,1.4812,1.4957,1.4957,1.4956,1.4956,1.4956,0,1.4182,1.422,1.4287,1.4365,1.4424,1.4418,1.4481,1.453,1.4606,1.4661,1.4724,1.4817,1.4894,1.4942,1.5019,1.5065,1.5068,1.5085,1.5083,1.5092,1.498,1.4958,1.5082,1.5082,1.5082,1.5082,1.5082,1.5082,1.4257,1.435,1.437,1.4487,1.4525,1.4609,1.4646,1.4695,1.474,1.4844,1.4907,1.4938,1.4992,1.5074,1.5145,1.5157,1.5187,1.5206,1.5218,1.5113,1.51,1.5087,1.5066,1.5211,1.5211,1.5324,1.5325,1.5326]}]]